Location: Elvington
(51.2000°N, 1.2500°E)
Time: 18:43:39
(UTC+00:00)

Daily predictions for brighter satellites

Satellite Brightness Start Highest point End
(mag) Time Altitude Azimuth Time Altitude Azimuth Time Altitude Azimuth
Cosmos 1300 3.4 20:58:45 10° N 21:02:23 40° ENE 21:05:59 10° SE
Lacrosse 5 4.3 21:01:55 10° W 21:03:36 12° WSW 21:05:16 10° SW
Meteor 1-16 Rocket 4.5 21:00:01 10° NNW 21:05:27 67° W 21:10:44 10° S
Resurs 01 Rocket 3.0 21:02:50 10° SSW 21:06:54 36° W 21:11:00 10° NNW
Cosmos 1000 Rocket 4.5 21:05:18 10° S 21:11:26 83° E 21:17:36 10° N
Cosmos 1340 3.0 21:08:33 10° S 21:12:10 46° E 21:15:48 10° NNE
USA 267 4.0 21:06:28 10° E 21:12:49 56° N 21:19:10 10° WNW
Cosmos 2278 Rocket 3.0 21:09:33 10° NNW 21:14:59 44° NE 21:20:23 10° ESE
Cosmos 2322 3.9 21:09:53 10° S 21:15:19 51° ESE 21:20:48 10° NE
Cosmos 1844 Rocket 3.5 21:10:36 10° NW 21:16:00 46° WSW 21:21:23 10° S
COSMOS 2428 3.3 21:11:53 10° S 21:17:07 38° ESE 21:22:23 10° NE
Cosmos 389 Rocket 3.9 21:18:26 10° N 21:21:22 26° ENE 21:24:17 10° SE
Cosmos 1867 3.7 21:17:54 10° NW 21:23:26 78° NE 21:28:54 10° SE
SL-23 DEB 4.3 21:23:16 10° W 21:27:04 89° NNE 21:33:25 10° E
Cosmos 968 Rocket 3.5 21:23:28 10° NNW 21:28:37 77° ENE 21:33:29 11° SSE
JB-3 4.5 21:26:56 10° N 21:30:55 79° WNW 21:34:57 10° SSW
Cosmos 1486 Rocket 4.2 21:28:52 10° NNW 21:34:06 67° ENE 21:38:52 12° SE
Cosmos 1544 Rocket 4.3 21:29:50 10° NNW 21:34:11 52° W 21:38:29 10° S
SJ 16-02 3.9 21:33:29 10° NNE 21:35:07 12° NE 21:36:43 10° ENE
Cosmos 1626 2.6 21:31:27 10° SSW 21:35:07 63° WNW 21:38:48 10° N
Cosmos 1110 Rocket 4.4 21:30:04 10° SW 21:35:13 67° WNW 21:40:28 10° NNE
Cosmos 2061 Rocket 4.2 21:29:29 10° NNW 21:35:58 80° W 21:42:20 10° S
FALCON 9 DEB 3.1 21:33:18 10° WSW 21:36:44 84° NNW 21:40:10 10° ENE
Cosmos 2123 Rocket 4.1 21:31:39 10° S 21:37:57 83° E 21:44:19 10° NNE
Meteor 2-10 Rocket 3.7 21:33:09 10° N 21:38:11 56° ENE 21:42:36 13° SSE
Cosmos 1606 Rocket 4.4 21:34:36 10° N 21:38:51 40° ENE 21:42:32 13° SE
Cosmos 2233 Rocket 4.1 21:33:36 10° N 21:39:46 71° ENE 21:45:35 12° SSE
Cosmos 1943 Rocket 4.2 21:36:00 10° NNW 21:40:07 21° NE 21:44:14 10° E
ARIANE 5 R/B 3.5 21:39:12 10° S 21:43:31 47° W 21:47:54 10° NNW
Cosmos 1346 Rocket 3.4 21:47:04 14° SSE 21:50:12 40° E 21:53:59 10° NNE
Cosmos 405 3.9 21:46:57 10° NNW 21:50:15 43° W 21:53:32 10° SSW
ATLAS CENTAUR R/B 2.9 21:46:54 10° WNW 21:50:43 30° WSW 21:54:30 11° S
Cosmos 2333 4.4 21:48:48 10° SW 21:54:34 78° WNW 22:00:19 10° NNE
BREEZE-M DEB (TANK) 4.4 21:45:09 10° SW 21:55:08 29° SSE 21:58:49 10° E
ATLAS 3B R/B 2.6 21:50:41 10° SW 21:57:14 83° SE 22:04:06 10° NE
SL-4 R/B 2.9 21:55:50 10° SSW 21:59:14 25° SE 22:02:26 10° E
FALCON 9 DEB 2.9 21:57:58 10° SW 22:01:02 57° SSE 22:04:08 10° ENE
ALOS 2 4.4 21:58:19 10° ESE 22:01:38 21° ENE 22:04:57 10° N
Cosmos 2219 Rocket 2.3 22:01:23 10° SSW 22:07:05 85° WNW 22:12:48 10° NNE
Cosmos 1607 4.0 22:00:54 10° NW 22:07:23 87° NE 22:12:53 14° SE
Meteor 2-5 Rocket 3.8 22:02:09 10° SSW 22:07:43 80° WNW 22:13:24 10° N
Lacrosse 5 rocket 1.6 22:04:52 10° WSW 22:08:29 61° NNW 22:12:03 10° ENE
Cosmos 2333 Rocket 2.5 22:03:00 10° SW 22:08:45 74° WNW 22:14:30 10° NNE
ERS-1 Rocket 4.0 22:04:25 10° SSW 22:09:10 41° W 22:13:57 10° NNW
Cosmos 2228 3.1 22:06:15 10° N 22:10:41 87° W 22:14:06 17° S
Cosmos 1536 Rocket 4.2 22:06:23 10° SSW 22:10:46 56° WNW 22:15:10 10° N
Iridium 2 4.2 22:12:20 19° SSE 22:14:40 43° E 22:18:15 10° NNE
FALCON 9 DEB 2.7 22:13:28 10° WSW 22:16:34 84° SSE 22:19:41 10° ENE
USA 215 3.9 22:14:01 10° ENE 22:19:45 32° SE 22:25:28 10° SSW
Terra 2.8 22:20:12 11° SSW 22:24:26 39° W 22:28:56 10° NNW
FALCON 9 DEB 2.7 22:21:30 10° WSW 22:24:37 80° SSE 22:27:45 10° ENE
SL-16 R/B 3.7 22:23:56 14° SE 22:26:35 20° E 22:30:31 10° NE
FALCON 9 DEB 2.8 22:24:02 10° WSW 22:27:09 90° W 22:30:16 10° ENE
Cosmos 1455 2.2 22:23:47 10° N 22:27:37 74° ENE 22:29:59 22° SSE
Cosmos 2237 Rocket 2.5 22:23:45 15° S 22:28:15 50° ESE 22:33:40 10° NE
Cosmos 1464 Rocket 4.2 22:23:12 10° N 22:29:33 66° ENE 22:34:26 18° SSE
Cosmos 1184 Rocket 3.4 22:29:49 24° SSE 22:31:15 39° E 22:34:19 10° NNE
Cosmos 2360 Rocket 4.1 22:27:03 10° WSW 22:32:03 31° NW 22:37:02 10° NNE
H-2A R/B 3.9 22:28:13 10° N 22:32:16 59° WNW 22:36:17 10° SSW
Cosmos 1503 Rocket 4.2 22:28:45 10° NNW 22:34:08 72° WSW 22:37:58 19° SSE
Cosmos 2369 Rocket 4.0 22:29:38 10° NNW 22:34:26 26° NE 22:39:12 10° E
Meteor 1-24 Rocket 4.2 22:34:17 10° SSW 22:39:33 56° WNW 22:45:02 10° N
GEOS 3 Rocket 3.7 22:38:08 16° SE 22:42:33 89° SW 22:47:55 10° NW
ATLAS CENTAUR R/B 3.9 22:40:45 18° S 22:44:24 40° ESE 22:55:30 10° NE
USA 267 3.3 22:49:01 10° ESE 22:55:35 84° NNE 23:02:10 10° WNW
Cosmos 389 Rocket 4.2 22:53:06 10° NW 22:55:57 24° W 22:58:04 14° SW
Okean 1-7 Rocket 3.7 22:54:15 23° S 22:56:54 61° E 23:01:17 10° NNE
BREEZE-M DEB (TANK) 2.6 22:55:51 10° WSW 22:59:01 72° SSE 23:07:44 10° E
Cosmos 2278 Rocket 3.0 22:53:47 10° NW 22:59:04 41° WSW 23:02:45 18° S
GENESIS II 4.2 22:55:11 10° SW 22:59:06 84° NW 23:03:01 10° NE
Cosmos 1726 Rocket 4.4 22:56:46 10° NNW 23:01:01 43° W 23:03:59 18° SSW
COSMOS 2428 3.7 22:55:48 10° SW 23:01:20 47° NW 23:06:54 10° NNE
Cosmos 2058 Rocket 3.2 22:57:17 10° NNW 23:01:43 67° W 23:04:24 23° S
Cosmos 2297 3.9 22:56:06 10° NNW 23:01:45 67° ENE 23:06:11 17° SE
Cosmos 2034 Rocket 4.0 22:59:29 10° N 23:05:43 83° E 23:10:01 21° SSE
NOSS 0 Rocket 4.1 23:03:02 10° SW 23:09:15 76° NW 23:15:32 10° NNE
FALCON 9 DEB 3.6 23:10:23 10° WNW 23:13:47 63° N 23:17:10 10° E
SJ 16-02 1.6 23:10:18 10° NNW 23:14:40 61° ENE 23:17:27 21° SE
Meteor 1-21 Rocket 4.3 23:14:30 19° SSW 23:18:38 86° WNW 23:24:26 10° NNE
Cosmos 1777 Rocket 4.1 23:14:24 10° NNW 23:19:41 69° WSW 23:22:56 24° S
Spot 4 4.4 23:20:17 21° SSW 23:23:10 48° W 23:27:49 10° NNW
GP-B 3.8 23:19:18 10° NNE 23:23:34 44° E 23:26:01 22° SE
Cosmos 1892 Rocket 4.4 23:21:07 15° SW 23:24:33 45° WNW 23:28:52 10° N
Cosmos 1943 Rocket 2.2 23:19:16 10° NNW 23:24:49 77° ENE 23:28:52 19° SE
Meteor 1-4 Rocket 2.4 23:21:41 10° NNW 23:25:10 77° W 23:26:36 32° S
MTI 4.0 23:28:36 10° NNE 23:31:36 50° E 23:32:27 36° SSE
Cosmos 1441 Rocket 3.6 23:29:44 22° SSW 23:32:00 59° WNW 23:35:47 10° N
Cosmos 1892 4.4 23:30:16 17° SE 23:32:01 22° E 23:35:05 10° NE
FALCON 9 DEB 3.4 23:33:40 10° W 23:36:47 61° N 23:39:54 10° ENE
ALOS 2 2.9 23:35:17 25° S 23:37:38 56° W 23:41:58 10° NNW
Tsikada Rocket 4.0 23:34:13 22° S 23:38:23 78° E 23:44:33 10° NNE
SL-4 R/B 1.7 23:34:29 10° WSW 23:38:27 72° SSE 23:42:09 10° E
Lacrosse 4 Rocket 4.1 23:35:50 10° NNW 23:38:45 18° NNE 23:41:38 10° ENE
Cosmos 1980 4.3 23:33:47 10° SW 23:39:21 55° NW 23:44:58 10° NNE
USA 229 DEB 4.3 23:38:46 22° SSE 23:42:10 36° ESE 23:48:16 10° NE
USA 229 4.3 23:38:53 22° SSE 23:42:16 36° ESE 23:48:21 10° NE
Cosmos 1703 4.2 23:44:02 19° SW 23:46:32 41° WNW 23:50:19 10° N
Lacrosse 5 rocket 3.0 23:44:45 10° WNW 23:48:01 32° N 23:51:18 10° ENE
ATLAS 3B R/B 4.1 23:42:26 10° W 23:48:36 39° NNW 23:55:03 10° NE
NOSS 3-1 (C) 3.5 23:46:44 23° SSW 23:50:04 55° SE 23:56:16 10° NE
Cosmos 2219 Rocket 4.5 23:47:26 10° W 23:51:53 23° NW 23:56:22 10° NNE
Cosmos 1626 Rocket 3.8 23:49:24 23° SSW 23:52:05 64° WNW 23:56:30 10° N
FALCON 9 DEB 3.4 23:49:14 10° W 23:52:18 59° N 23:55:22 10° E
Elektron 1 4.4 23:50:29 10° WNW 23:53:20 36° SW 23:53:44 34° SSW
SL-16 R/B 4.4 23:49:43 10° ESE 23:54:34 25° NE 23:59:24 10° N
Cosmos 1408 3.9 23:53:09 21° SE 23:54:44 30° E 23:58:00 10° NNE
Cosmos 1825 4.1 23:54:28 14° SE 23:56:19 20° E 23:59:07 10° NE
